Year,Month,Day,Hour,Minute,Value (Times are PST for temperature in C)
2009,05,21,00,00,9.10
2009,05,21,00,01,9.10
2009,05,21,00,02,9.00
2009,05,21,00,03,9.00
2009,05,21,00,04,9.00
2009,05,21,00,05,9.00
2009,05,21,00,06,8.90
2009,05,21,00,07,8.90
2009,05,21,00,08,8.90
2009,05,21,00,09,8.80
2009,05,21,00,10,8.80
2009,05,21,00,11,8.70
2009,05,21,00,12,8.70
2009,05,21,00,13,8.70
2009,05,21,00,14,8.70
2009,05,21,00,15,8.60
2009,05,21,00,16,8.60
2009,05,21,00,17,8.60
2009,05,21,00,18,8.50
2009,05,21,00,19,8.50
2009,05,21,00,20,8.40
2009,05,21,00,21,8.40
2009,05,21,00,22,8.30
2009,05,21,00,23,8.30
2009,05,21,00,24,8.20
2009,05,21,00,25,8.20
2009,05,21,00,26,8.20
2009,05,21,00,27,8.20
2009,05,21,00,28,8.10
2009,05,21,00,29,8.10
2009,05,21,00,30,8.10
2009,05,21,00,31,8.00
2009,05,21,00,32,8.00
2009,05,21,00,33,8.00
2009,05,21,00,34,7.90
2009,05,21,00,35,7.90
2009,05,21,00,36,7.90
2009,05,21,00,37,7.90
2009,05,21,00,38,7.80
2009,05,21,00,39,7.80
2009,05,21,00,40,7.80
2009,05,21,00,41,7.80
2009,05,21,00,42,7.80
2009,05,21,00,43,7.80
2009,05,21,00,44,7.80
2009,05,21,00,45,7.70
2009,05,21,00,46,7.70
2009,05,21,00,47,7.70
2009,05,21,00,48,7.60
2009,05,21,00,49,7.60
2009,05,21,00,50,7.60
2009,05,21,00,51,7.60
2009,05,21,00,52,7.50
2009,05,21,00,53,7.50
2009,05,21,00,54,7.50
2009,05,21,00,55,7.50
2009,05,21,00,56,7.40
2009,05,21,00,57,7.40
2009,05,21,00,58,7.40
2009,05,21,00,59,7.40
2009,05,21,01,00,7.40
2009,05,21,01,01,7.30
2009,05,21,01,02,7.30
2009,05,21,01,03,7.30
2009,05,21,01,04,7.30
2009,05,21,01,05,7.30
2009,05,21,01,06,7.30
2009,05,21,01,07,7.30
2009,05,21,01,08,7.30
2009,05,21,01,09,7.30
2009,05,21,01,10,7.30
2009,05,21,01,11,7.30
2009,05,21,01,12,7.30
2009,05,21,01,13,7.30
2009,05,21,01,14,7.30
2009,05,21,01,15,7.30
2009,05,21,01,16,7.30
2009,05,21,01,17,7.30
2009,05,21,01,18,7.30
2009,05,21,01,19,7.30
2009,05,21,01,20,7.30
2009,05,21,01,21,7.30
2009,05,21,01,22,7.20
2009,05,21,01,23,7.20
2009,05,21,01,24,7.20
2009,05,21,01,25,7.20
2009,05,21,01,26,7.20
2009,05,21,01,27,7.20
2009,05,21,01,28,7.10
2009,05,21,01,29,7.10
2009,05,21,01,30,7.10
2009,05,21,01,31,7.10
2009,05,21,01,32,7.10
2009,05,21,01,33,7.00
2009,05,21,01,34,7.00
2009,05,21,01,35,7.00
2009,05,21,01,36,7.00
2009,05,21,01,37,7.00
2009,05,21,01,38,7.00
2009,05,21,01,39,6.90
2009,05,21,01,40,6.90
2009,05,21,01,41,6.90
2009,05,21,01,42,6.90
2009,05,21,01,43,6.90
2009,05,21,01,44,6.90
2009,05,21,01,45,6.90
2009,05,21,01,46,6.90
2009,05,21,01,47,6.90
2009,05,21,01,48,6.90
2009,05,21,01,49,6.90
2009,05,21,01,50,6.90
2009,05,21,01,51,6.90
2009,05,21,01,52,6.90
2009,05,21,01,53,6.90
2009,05,21,01,54,6.90
2009,05,21,01,55,6.90
2009,05,21,01,56,6.90
2009,05,21,01,57,6.80
2009,05,21,01,58,6.80
2009,05,21,01,59,6.80
2009,05,21,02,00,6.80
2009,05,21,02,01,6.80
2009,05,21,02,02,6.80
2009,05,21,02,03,6.80
2009,05,21,02,04,6.80
2009,05,21,02,05,6.70
2009,05,21,02,06,6.70
2009,05,21,02,07,6.70
2009,05,21,02,08,6.70
2009,05,21,02,09,6.60
2009,05,21,02,10,6.60
2009,05,21,02,11,6.60
2009,05,21,02,12,6.60
2009,05,21,02,13,6.60
2009,05,21,02,14,6.60
2009,05,21,02,15,6.60
2009,05,21,02,16,6.60
2009,05,21,02,17,6.50
2009,05,21,02,18,6.40
2009,05,21,02,19,6.40
2009,05,21,02,20,6.40
2009,05,21,02,21,6.40
2009,05,21,02,22,6.40
2009,05,21,02,23,6.40
2009,05,21,02,24,6.40
2009,05,21,02,25,6.40
2009,05,21,02,26,6.40
2009,05,21,02,27,6.40
2009,05,21,02,28,6.40
2009,05,21,02,29,6.40
2009,05,21,02,30,6.40
2009,05,21,02,31,6.40
2009,05,21,02,32,6.40
2009,05,21,02,33,6.40
2009,05,21,02,34,6.40
2009,05,21,02,35,6.40
2009,05,21,02,36,6.40
2009,05,21,02,37,6.40
2009,05,21,02,38,6.40
2009,05,21,02,39,6.40
2009,05,21,02,40,6.40
2009,05,21,02,41,6.30
2009,05,21,02,42,6.30
2009,05,21,02,43,6.30
2009,05,21,02,44,6.30
2009,05,21,02,45,6.30
2009,05,21,02,46,6.30
2009,05,21,02,47,6.30
2009,05,21,02,48,6.30
2009,05,21,02,49,6.30
2009,05,21,02,50,6.20
2009,05,21,02,51,6.20
2009,05,21,02,52,6.20
2009,05,21,02,53,6.20
2009,05,21,02,54,6.20
2009,05,21,02,55,6.20
2009,05,21,02,56,6.20
2009,05,21,02,57,6.20
2009,05,21,02,58,6.20
2009,05,21,02,59,6.20
2009,05,21,03,00,6.20
2009,05,21,03,01,6.20
2009,05,21,03,02,6.20
2009,05,21,03,03,6.20
2009,05,21,03,04,6.20
2009,05,21,03,05,6.20
2009,05,21,03,06,6.20
2009,05,21,03,07,6.20
2009,05,21,03,08,6.20
2009,05,21,03,09,6.10
2009,05,21,03,10,6.10
2009,05,21,03,11,6.10
2009,05,21,03,12,6.10
2009,05,21,03,13,6.10
2009,05,21,03,14,6.00
2009,05,21,03,15,6.00
2009,05,21,03,16,6.00
2009,05,21,03,17,6.00
2009,05,21,03,18,6.00
2009,05,21,03,19,5.90
2009,05,21,03,20,5.90
2009,05,21,03,21,5.90
2009,05,21,03,22,5.80
2009,05,21,03,23,5.80
2009,05,21,03,24,5.80
2009,05,21,03,25,5.80
2009,05,21,03,26,5.80
2009,05,21,03,27,5.70
2009,05,21,03,28,5.70
2009,05,21,03,29,5.70
2009,05,21,03,30,5.70
2009,05,21,03,31,5.70
2009,05,21,03,32,5.70
2009,05,21,03,33,5.70
2009,05,21,03,34,5.70
2009,05,21,03,35,5.70
2009,05,21,03,36,5.70
2009,05,21,03,37,5.70
2009,05,21,03,38,5.70
2009,05,21,03,39,5.70
2009,05,21,03,40,5.60
2009,05,21,03,41,5.60
2009,05,21,03,42,5.60
2009,05,21,03,43,5.60
2009,05,21,03,44,5.60
2009,05,21,03,45,5.60
2009,05,21,03,46,5.60
2009,05,21,03,47,5.50
2009,05,21,03,48,5.50
2009,05,21,03,49,5.50
2009,05,21,03,50,5.50
2009,05,21,03,51,5.50
2009,05,21,03,52,5.50
2009,05,21,03,53,5.40
2009,05,21,03,54,5.40
2009,05,21,03,55,5.40
2009,05,21,03,56,5.40
2009,05,21,03,57,5.30
2009,05,21,03,58,5.30
2009,05,21,03,59,5.30
2009,05,21,04,00,5.30
2009,05,21,04,01,5.30
2009,05,21,04,02,5.30
2009,05,21,04,03,5.30
2009,05,21,04,04,5.30
2009,05,21,04,05,5.30
2009,05,21,04,06,5.30
2009,05,21,04,07,5.30
2009,05,21,04,08,5.30
2009,05,21,04,09,5.30
2009,05,21,04,10,5.30
2009,05,21,04,11,5.30
2009,05,21,04,12,5.30
2009,05,21,04,13,5.30
2009,05,21,04,14,5.30
2009,05,21,04,15,5.30
2009,05,21,04,16,5.30
2009,05,21,04,17,5.30
2009,05,21,04,18,5.30
2009,05,21,04,19,5.30
2009,05,21,04,20,5.30
2009,05,21,04,21,5.30
2009,05,21,04,22,5.30
2009,05,21,04,23,5.30
2009,05,21,04,24,5.30
2009,05,21,04,25,5.30
2009,05,21,04,26,5.30
2009,05,21,04,27,5.30
2009,05,21,04,28,5.30
2009,05,21,04,29,5.30
2009,05,21,04,30,5.30
2009,05,21,04,31,5.20
2009,05,21,04,32,5.20
2009,05,21,04,33,5.20
2009,05,21,04,34,5.20
2009,05,21,04,35,5.20
2009,05,21,04,36,5.20
2009,05,21,04,37,5.20
2009,05,21,04,38,5.20
2009,05,21,04,39,5.20
2009,05,21,04,40,5.20
2009,05,21,04,41,5.20
2009,05,21,04,42,5.20
2009,05,21,04,43,5.20
2009,05,21,04,44,5.20
2009,05,21,04,45,5.20
2009,05,21,04,46,5.20
2009,05,21,04,47,5.20
2009,05,21,04,48,5.10
2009,05,21,04,49,5.10
2009,05,21,04,50,5.10
2009,05,21,04,51,5.10
2009,05,21,04,52,5.10
2009,05,21,04,53,5.10
2009,05,21,04,54,5.10
2009,05,21,04,55,5.10
2009,05,21,04,56,5.10
2009,05,21,04,57,5.10
2009,05,21,04,58,5.10
2009,05,21,04,59,5.10
2009,05,21,05,00,5.10
2009,05,21,05,01,5.10
2009,05,21,05,02,5.10
2009,05,21,05,03,5.10
2009,05,21,05,04,5.10
2009,05,21,05,05,5.10
2009,05,21,05,06,5.10
2009,05,21,05,07,5.10
2009,05,21,05,08,5.10
2009,05,21,05,09,5.10
2009,05,21,05,10,5.10
2009,05,21,05,11,5.10
2009,05,21,05,12,5.10
2009,05,21,05,13,5.10
2009,05,21,05,14,5.10
2009,05,21,05,15,5.10
2009,05,21,05,16,5.10
2009,05,21,05,17,5.10
2009,05,21,05,18,5.10
2009,05,21,05,19,5.00
2009,05,21,05,20,4.90
2009,05,21,05,21,4.90
2009,05,21,05,22,4.90
2009,05,21,05,23,4.90
2009,05,21,05,24,4.90
2009,05,21,05,25,4.90
2009,05,21,05,26,4.90
2009,05,21,05,27,4.90
2009,05,21,05,28,4.90
2009,05,21,05,29,4.90
2009,05,21,05,30,4.90
2009,05,21,05,31,4.90
2009,05,21,05,32,4.90
2009,05,21,05,33,4.90
2009,05,21,05,34,4.90
2009,05,21,05,35,4.90
2009,05,21,05,36,4.90
2009,05,21,05,37,4.90
2009,05,21,05,38,4.90
2009,05,21,05,39,4.90
2009,05,21,05,40,4.90
2009,05,21,05,41,4.90
2009,05,21,05,42,4.90
2009,05,21,05,43,4.90
2009,05,21,05,44,4.90
2009,05,21,05,45,4.90
2009,05,21,05,46,4.90
2009,05,21,05,47,4.90
2009,05,21,05,48,4.90
2009,05,21,05,49,4.90
2009,05,21,05,50,4.90
2009,05,21,05,51,4.90
2009,05,21,05,52,4.90
2009,05,21,05,53,4.90
2009,05,21,05,54,4.90
2009,05,21,05,55,4.90
2009,05,21,05,56,4.90
2009,05,21,05,57,4.90
2009,05,21,05,58,4.90
2009,05,21,05,59,4.90
2009,05,21,06,00,4.90
2009,05,21,06,01,4.90
2009,05,21,06,02,4.90
2009,05,21,06,03,4.90
2009,05,21,06,04,4.90
2009,05,21,06,05,4.90
2009,05,21,06,06,4.90
2009,05,21,06,07,4.90
2009,05,21,06,08,4.90
2009,05,21,06,09,4.90
2009,05,21,06,10,4.90
2009,05,21,06,11,4.90
2009,05,21,06,12,5.00
2009,05,21,06,13,5.10
2009,05,21,06,14,5.10
2009,05,21,06,15,5.10
2009,05,21,06,16,5.10
2009,05,21,06,17,5.10
2009,05,21,06,18,5.10
2009,05,21,06,19,5.10
2009,05,21,06,20,5.20
2009,05,21,06,21,5.20
2009,05,21,06,22,5.20
2009,05,21,06,23,5.30
2009,05,21,06,24,5.30
2009,05,21,06,25,5.30
2009,05,21,06,26,5.30
2009,05,21,06,27,5.40
2009,05,21,06,28,5.40
2009,05,21,06,29,5.50
2009,05,21,06,30,5.50
2009,05,21,06,31,5.60
2009,05,21,06,32,5.60
2009,05,21,06,33,5.70
2009,05,21,06,34,5.70
2009,05,21,06,35,5.70
2009,05,21,06,36,5.70
2009,05,21,06,37,5.80
2009,05,21,06,38,5.80
2009,05,21,06,39,5.90
2009,05,21,06,40,5.90
2009,05,21,06,41,6.00
2009,05,21,06,42,6.10
2009,05,21,06,43,6.20
2009,05,21,06,44,6.20
2009,05,21,06,45,6.30
2009,05,21,06,46,6.30
2009,05,21,06,47,6.40
2009,05,21,06,48,6.40
2009,05,21,06,49,6.40
2009,05,21,06,50,6.50
2009,05,21,06,51,6.60
2009,05,21,06,52,6.60
2009,05,21,06,53,6.60
2009,05,21,06,54,6.60
2009,05,21,06,55,6.60
2009,05,21,06,56,6.70
2009,05,21,06,57,6.70
2009,05,21,06,58,6.70
2009,05,21,06,59,6.80
2009,05,21,07,00,6.80
2009,05,21,07,01,6.80
2009,05,21,07,02,6.90
2009,05,21,07,03,6.90
2009,05,21,07,04,7.00
2009,05,21,07,05,7.00
2009,05,21,07,06,7.10
2009,05,21,07,07,7.20
2009,05,21,07,08,7.20
2009,05,21,07,09,7.30
2009,05,21,07,10,7.30
2009,05,21,07,11,7.40
2009,05,21,07,12,7.50
2009,05,21,07,13,7.60
2009,05,21,07,14,7.60
2009,05,21,07,15,7.70
2009,05,21,07,16,7.80
2009,05,21,07,17,7.90
2009,05,21,07,18,7.90
2009,05,21,07,19,8.00
2009,05,21,07,20,8.10
2009,05,21,07,21,8.30
2009,05,21,07,22,8.40
2009,05,21,07,23,8.50
2009,05,21,07,24,8.70
2009,05,21,07,25,8.80
2009,05,21,07,26,9.00
2009,05,21,07,27,9.10
2009,05,21,07,28,9.30
2009,05,21,07,29,9.40
2009,05,21,07,30,9.50
2009,05,21,07,31,9.70
2009,05,21,07,32,9.80
2009,05,21,07,33,9.90
2009,05,21,07,34,10.00
2009,05,21,07,35,10.10
2009,05,21,07,36,10.20
2009,05,21,07,37,10.30
2009,05,21,07,38,10.30
2009,05,21,07,39,10.40
2009,05,21,07,40,10.40
2009,05,21,07,41,10.50
2009,05,21,07,42,10.60
2009,05,21,07,43,10.60
2009,05,21,07,44,10.70
2009,05,21,07,45,10.70
2009,05,21,07,46,10.80
2009,05,21,07,47,10.90
2009,05,21,07,48,10.90
2009,05,21,07,49,10.90
2009,05,21,07,50,11.00
2009,05,21,07,51,11.10
2009,05,21,07,52,11.20
2009,05,21,07,53,11.20
2009,05,21,07,54,11.30
2009,05,21,07,55,11.30
2009,05,21,07,56,11.40
2009,05,21,07,57,11.40
2009,05,21,07,58,11.40
2009,05,21,07,59,11.60
2009,05,21,08,00,11.60
2009,05,21,08,01,11.60
2009,05,21,08,02,11.70
2009,05,21,08,03,11.70
2009,05,21,08,04,11.70
2009,05,21,08,05,11.70
2009,05,21,08,06,11.70
2009,05,21,08,07,11.70
2009,05,21,08,08,11.70
2009,05,21,08,09,11.70
2009,05,21,08,10,11.70
2009,05,21,08,11,11.70
2009,05,21,08,12,11.70
2009,05,21,08,13,11.70
2009,05,21,08,14,11.70
2009,05,21,08,15,11.80
2009,05,21,08,16,11.80
2009,05,21,08,17,11.80
2009,05,21,08,18,11.90
2009,05,21,08,19,11.90
2009,05,21,08,20,12.00
2009,05,21,08,21,12.00
2009,05,21,08,22,12.00
2009,05,21,08,23,12.10
2009,05,21,08,24,12.10
2009,05,21,08,25,12.10
2009,05,21,08,26,12.10
2009,05,21,08,27,12.20
2009,05,21,08,28,12.20
2009,05,21,08,29,12.30
2009,05,21,08,30,12.30
2009,05,21,08,31,12.30
2009,05,21,08,32,12.30
2009,05,21,08,33,12.30
2009,05,21,08,34,12.40
2009,05,21,08,35,12.40
2009,05,21,08,36,12.40
2009,05,21,08,37,12.40
2009,05,21,08,38,12.50
2009,05,21,08,39,12.50
2009,05,21,08,40,12.60
2009,05,21,08,41,12.70
2009,05,21,08,42,12.80
2009,05,21,08,43,12.90
2009,05,21,08,44,13.00
2009,05,21,08,45,13.10
2009,05,21,08,46,13.20
2009,05,21,08,47,13.30
2009,05,21,08,48,13.30
2009,05,21,08,49,13.40
2009,05,21,08,50,13.40
2009,05,21,08,51,13.40
2009,05,21,08,52,13.40
2009,05,21,08,53,13.40
2009,05,21,08,54,13.30
2009,05,21,08,55,13.30
2009,05,21,08,56,13.10
2009,05,21,08,57,13.10
2009,05,21,08,58,13.10
2009,05,21,08,59,13.10
2009,05,21,09,00,13.20
2009,05,21,09,01,13.30
2009,05,21,09,02,13.30
2009,05,21,09,03,13.40
2009,05,21,09,04,13.50
2009,05,21,09,05,13.60
2009,05,21,09,06,13.70
2009,05,21,09,07,13.80
2009,05,21,09,08,13.90
2009,05,21,09,09,13.90
2009,05,21,09,10,14.00
2009,05,21,09,11,14.00
2009,05,21,09,12,14.00
2009,05,21,09,13,14.10
2009,05,21,09,14,14.10
2009,05,21,09,15,14.20
2009,05,21,09,16,14.10
2009,05,21,09,17,14.10
2009,05,21,09,18,14.00
2009,05,21,09,19,14.00
2009,05,21,09,20,14.00
2009,05,21,09,21,14.00
2009,05,21,09,22,13.90
2009,05,21,09,23,13.90
2009,05,21,09,24,13.90
2009,05,21,09,25,13.80
2009,05,21,09,26,13.90
2009,05,21,09,27,13.90
2009,05,21,09,28,14.10
2009,05,21,09,29,14.20
2009,05,21,09,30,14.20
2009,05,21,09,31,14.30
2009,05,21,09,32,14.30
2009,05,21,09,33,14.30
2009,05,21,09,34,14.30
2009,05,21,09,35,14.40
2009,05,21,09,36,14.50
2009,05,21,09,37,14.60
2009,05,21,09,38,14.60
2009,05,21,09,39,14.70
2009,05,21,09,40,14.70
2009,05,21,09,41,14.70
2009,05,21,09,42,14.80
2009,05,21,09,43,14.80
2009,05,21,09,44,14.90
2009,05,21,09,45,14.90
2009,05,21,09,46,14.90
2009,05,21,09,47,15.00
2009,05,21,09,48,15.00
2009,05,21,09,49,15.00
2009,05,21,09,50,15.00
2009,05,21,09,51,14.90
2009,05,21,09,52,14.70
2009,05,21,09,53,14.50
2009,05,21,09,54,14.40
2009,05,21,09,55,14.30
2009,05,21,09,56,14.20
2009,05,21,09,57,14.20
2009,05,21,09,58,14.30
2009,05,21,09,59,14.30
2009,05,21,10,00,14.40
2009,05,21,10,01,14.50
2009,05,21,10,02,14.60
2009,05,21,10,03,14.70
2009,05,21,10,04,14.70
2009,05,21,10,05,14.70
2009,05,21,10,06,14.70
2009,05,21,10,07,14.70
2009,05,21,10,08,14.60
2009,05,21,10,09,14.60
2009,05,21,10,10,14.60
2009,05,21,10,11,14.60
2009,05,21,10,12,14.60
2009,05,21,10,13,14.60
2009,05,21,10,14,14.60
2009,05,21,10,15,14.60
2009,05,21,10,16,14.60
2009,05,21,10,17,14.60
2009,05,21,10,18,14.60
2009,05,21,10,19,14.60
2009,05,21,10,20,14.60
2009,05,21,10,21,14.70
2009,05,21,10,22,14.70
2009,05,21,10,23,14.80
2009,05,21,10,24,14.80
2009,05,21,10,25,14.80
2009,05,21,10,26,14.80
2009,05,21,10,27,14.90
2009,05,21,10,28,15.00
2009,05,21,10,29,15.00
2009,05,21,10,30,15.10
2009,05,21,10,31,15.10
2009,05,21,10,32,14.90
2009,05,21,10,33,14.70
2009,05,21,10,34,14.60
2009,05,21,10,35,14.70
2009,05,21,10,36,14.70
2009,05,21,10,37,14.80
2009,05,21,10,38,14.80
2009,05,21,10,39,14.80
2009,05,21,10,40,14.70
2009,05,21,10,41,14.70
2009,05,21,10,42,14.70
2009,05,21,10,43,14.60
2009,05,21,10,44,14.50
2009,05,21,10,45,14.50
2009,05,21,10,46,14.50
2009,05,21,10,47,14.50
2009,05,21,10,48,14.40
2009,05,21,10,49,14.40
2009,05,21,10,50,14.40
2009,05,21,10,51,14.50
2009,05,21,10,52,14.50
2009,05,21,10,53,14.60
2009,05,21,10,54,14.60
2009,05,21,10,55,14.60
2009,05,21,10,56,14.70
2009,05,21,10,57,14.60
2009,05,21,10,58,14.50
2009,05,21,10,59,14.50
2009,05,21,11,00,14.50
2009,05,21,11,01,14.50
2009,05,21,11,02,14.50
2009,05,21,11,03,14.50
2009,05,21,11,04,14.50
2009,05,21,11,05,14.50
2009,05,21,11,06,14.40
2009,05,21,11,07,14.40
2009,05,21,11,08,14.40
2009,05,21,11,09,14.50
2009,05,21,11,10,14.40
2009,05,21,11,11,14.50
2009,05,21,11,12,14.60
2009,05,21,11,13,14.70
2009,05,21,11,14,14.80
2009,05,21,11,15,14.80
2009,05,21,11,16,14.70
2009,05,21,11,17,14.70
2009,05,21,11,18,14.70
2009,05,21,11,19,14.80
2009,05,21,11,20,14.80
2009,05,21,11,21,14.70
2009,05,21,11,22,14.60
2009,05,21,11,23,14.60
2009,05,21,11,24,14.70
2009,05,21,11,25,14.70
2009,05,21,11,26,14.70
2009,05,21,11,27,14.80
2009,05,21,11,28,14.70
2009,05,21,11,29,14.70
2009,05,21,11,30,14.70
2009,05,21,11,31,14.90
2009,05,21,11,32,15.00
2009,05,21,11,33,15.20
2009,05,21,11,34,15.30
2009,05,21,11,35,15.40
2009,05,21,11,36,15.40
2009,05,21,11,37,15.30
2009,05,21,11,38,15.20
2009,05,21,11,39,15.10
2009,05,21,11,40,15.10
2009,05,21,11,41,15.10
2009,05,21,11,42,15.10
2009,05,21,11,43,15.20
2009,05,21,11,44,15.30
2009,05,21,11,45,15.40
2009,05,21,11,46,15.40
2009,05,21,11,47,15.50
2009,05,21,11,48,15.60
2009,05,21,11,49,15.60
2009,05,21,11,50,15.60
2009,05,21,11,51,15.50
2009,05,21,11,52,15.50
2009,05,21,11,53,15.50
2009,05,21,11,54,15.40
2009,05,21,11,55,15.40
2009,05,21,11,56,15.40
2009,05,21,11,57,15.30
2009,05,21,11,58,15.30
2009,05,21,11,59,15.30
2009,05,21,12,00,15.40
2009,05,21,12,01,15.40
2009,05,21,12,02,15.30
2009,05,21,12,03,15.30
2009,05,21,12,04,15.50
2009,05,21,12,05,15.50
2009,05,21,12,06,15.60
2009,05,21,12,07,15.70
2009,05,21,12,08,15.80
2009,05,21,12,09,15.80
2009,05,21,12,10,15.80
2009,05,21,12,11,15.80
2009,05,21,12,12,15.80
2009,05,21,12,13,15.80
2009,05,21,12,14,15.80
2009,05,21,12,15,15.80
2009,05,21,12,16,15.80
2009,05,21,12,17,15.80
2009,05,21,12,18,15.80
2009,05,21,12,19,15.80
2009,05,21,12,20,15.90
2009,05,21,12,21,16.00
2009,05,21,12,22,16.10
2009,05,21,12,23,16.10
2009,05,21,12,24,16.00
2009,05,21,12,25,15.90
2009,05,21,12,26,15.90
2009,05,21,12,27,16.00
2009,05,21,12,28,16.00
2009,05,21,12,29,15.90
2009,05,21,12,30,15.90
2009,05,21,12,31,15.80
2009,05,21,12,32,15.80
2009,05,21,12,33,15.90
2009,05,21,12,34,16.00
2009,05,21,12,35,16.00
2009,05,21,12,36,15.90
2009,05,21,12,37,15.90
2009,05,21,12,38,16.10
2009,05,21,12,39,16.20
2009,05,21,12,40,16.30
2009,05,21,12,41,16.30
2009,05,21,12,42,16.30
2009,05,21,12,43,16.30
2009,05,21,12,44,16.30
2009,05,21,12,45,16.20
2009,05,21,12,46,16.20
2009,05,21,12,47,16.20
2009,05,21,12,48,16.30
2009,05,21,12,49,16.40
2009,05,21,12,50,16.30
2009,05,21,12,51,16.30
2009,05,21,12,52,16.30
2009,05,21,12,53,16.30
2009,05,21,12,54,16.40
2009,05,21,12,55,16.40
2009,05,21,12,56,16.40
2009,05,21,12,57,16.50
2009,05,21,12,58,16.60
2009,05,21,12,59,16.60
2009,05,21,13,00,16.60
2009,05,21,13,01,16.60
2009,05,21,13,02,16.60
2009,05,21,13,03,16.70
2009,05,21,13,04,16.80
2009,05,21,13,05,16.80
2009,05,21,13,06,16.90
2009,05,21,13,07,17.00
2009,05,21,13,08,17.10
2009,05,21,13,09,17.20
2009,05,21,13,10,17.10
2009,05,21,13,11,17.10
2009,05,21,13,12,17.20
2009,05,21,13,13,17.20
2009,05,21,13,14,17.30
2009,05,21,13,15,17.30
2009,05,21,13,16,17.50
2009,05,21,13,17,17.60
2009,05,21,13,18,17.50
2009,05,21,13,19,17.50
2009,05,21,13,20,17.60
2009,05,21,13,21,17.60
2009,05,21,13,22,17.60
2009,05,21,13,23,17.60
2009,05,21,13,24,17.60
2009,05,21,13,25,17.60
2009,05,21,13,26,17.60
2009,05,21,13,27,17.50
2009,05,21,13,28,17.50
2009,05,21,13,29,17.50
2009,05,21,13,30,17.60
2009,05,21,13,31,17.70
2009,05,21,13,32,17.70
2009,05,21,13,33,17.60
2009,05,21,13,34,17.50
2009,05,21,13,35,17.50
2009,05,21,13,36,17.50
2009,05,21,13,37,17.70
2009,05,21,13,38,17.80
2009,05,21,13,39,17.80
2009,05,21,13,40,17.80
2009,05,21,13,41,17.80
2009,05,21,13,42,17.80
2009,05,21,13,43,17.70
2009,05,21,13,44,17.60
2009,05,21,13,45,17.60
2009,05,21,13,46,17.60
2009,05,21,13,47,17.70
2009,05,21,13,48,17.80
2009,05,21,13,49,17.80
2009,05,21,13,50,17.70
2009,05,21,13,51,17.60
2009,05,21,13,52,17.50
2009,05,21,13,53,17.50
2009,05,21,13,54,17.40
2009,05,21,13,55,17.40
2009,05,21,13,56,17.40
2009,05,21,13,57,17.40
2009,05,21,13,58,17.40
2009,05,21,13,59,17.40
2009,05,21,14,00,17.50
2009,05,21,14,01,17.70
2009,05,21,14,02,17.70
2009,05,21,14,03,17.80
2009,05,21,14,04,17.80
2009,05,21,14,05,17.80
2009,05,21,14,06,17.80
2009,05,21,14,07,17.90
2009,05,21,14,08,18.10
2009,05,21,14,09,18.20
2009,05,21,14,10,18.20
2009,05,21,14,11,18.10
2009,05,21,14,12,18.10
2009,05,21,14,13,18.10
2009,05,21,14,14,18.30
2009,05,21,14,15,18.50
2009,05,21,14,16,18.60
2009,05,21,14,17,18.70
2009,05,21,14,18,18.70
2009,05,21,14,19,18.60
2009,05,21,14,20,18.60
2009,05,21,14,21,18.60
2009,05,21,14,22,18.50
2009,05,21,14,23,18.50
2009,05,21,14,24,18.60
2009,05,21,14,25,18.60
2009,05,21,14,26,18.60
2009,05,21,14,27,18.50
2009,05,21,14,28,18.40
2009,05,21,14,29,18.30
2009,05,21,14,30,18.20
2009,05,21,14,31,18.10
2009,05,21,14,32,18.10
2009,05,21,14,33,18.00
2009,05,21,14,34,17.90
2009,05,21,14,35,17.90
2009,05,21,14,36,17.90
2009,05,21,14,37,17.80
2009,05,21,14,38,17.80
2009,05,21,14,39,17.80
2009,05,21,14,40,17.90
2009,05,21,14,41,17.90
2009,05,21,14,42,17.90
2009,05,21,14,43,17.90
2009,05,21,14,44,18.00
2009,05,21,14,45,18.10
2009,05,21,14,46,18.20
2009,05,21,14,47,18.20
2009,05,21,14,48,18.20
2009,05,21,14,49,18.20
2009,05,21,14,50,18.20
2009,05,21,14,51,18.30
2009,05,21,14,52,18.40
2009,05,21,14,53,18.40
2009,05,21,14,54,18.50
2009,05,21,14,55,18.50
2009,05,21,14,56,18.60
2009,05,21,14,57,18.60
2009,05,21,14,58,18.50
2009,05,21,14,59,18.40
2009,05,21,15,00,18.30
2009,05,21,15,01,18.20
2009,05,21,15,02,18.20
2009,05,21,15,03,18.30
2009,05,21,15,04,18.40
2009,05,21,15,05,18.50
2009,05,21,15,06,18.50
2009,05,21,15,07,18.60
2009,05,21,15,08,18.60
2009,05,21,15,09,18.50
2009,05,21,15,10,18.50
2009,05,21,15,11,18.50
2009,05,21,15,12,18.60
2009,05,21,15,13,18.70
2009,05,21,15,14,18.90
2009,05,21,15,15,18.90
2009,05,21,15,16,18.80
2009,05,21,15,17,18.80
2009,05,21,15,18,18.90
2009,05,21,15,19,18.90
2009,05,21,15,20,18.90
2009,05,21,15,21,18.90
2009,05,21,15,22,18.90
2009,05,21,15,23,18.80
2009,05,21,15,24,18.70
2009,05,21,15,25,18.60
2009,05,21,15,26,18.50
2009,05,21,15,27,18.40
2009,05,21,15,28,18.50
2009,05,21,15,29,18.50
2009,05,21,15,30,18.40
2009,05,21,15,31,18.30
2009,05,21,15,32,18.30
2009,05,21,15,33,18.20
2009,05,21,15,34,18.20
2009,05,21,15,35,18.30
2009,05,21,15,36,18.40
2009,05,21,15,37,18.50
2009,05,21,15,38,18.60
2009,05,21,15,39,18.60
2009,05,21,15,40,18.70
2009,05,21,15,41,18.80
2009,05,21,15,42,18.90
2009,05,21,15,43,18.90
2009,05,21,15,44,19.00
2009,05,21,15,45,19.10
2009,05,21,15,46,19.20
2009,05,21,15,47,19.20
2009,05,21,15,48,19.20
2009,05,21,15,49,19.20
2009,05,21,15,50,19.20
2009,05,21,15,51,19.20
2009,05,21,15,52,19.20
2009,05,21,15,53,19.10
2009,05,21,15,54,18.90
2009,05,21,15,55,18.80
2009,05,21,15,56,18.80
2009,05,21,15,57,18.80
2009,05,21,15,58,18.80
2009,05,21,15,59,18.80
2009,05,21,16,00,18.70
2009,05,21,16,01,18.70
2009,05,21,16,02,18.50
2009,05,21,16,03,17.70
2009,05,21,16,04,17.20
2009,05,21,16,05,16.90
2009,05,21,16,06,16.80
2009,05,21,16,07,16.70
2009,05,21,16,08,16.50
2009,05,21,16,09,16.30
2009,05,21,16,10,16.10
2009,05,21,16,11,15.80
2009,05,21,16,12,15.70
2009,05,21,16,13,15.60
2009,05,21,16,14,15.60
2009,05,21,16,15,15.40
2009,05,21,16,16,15.30
2009,05,21,16,17,15.20
2009,05,21,16,18,15.10
2009,05,21,16,19,15.10
2009,05,21,16,20,15.10
2009,05,21,16,21,15.10
2009,05,21,16,22,15.10
2009,05,21,16,23,15.00
2009,05,21,16,24,15.00
2009,05,21,16,25,15.00
2009,05,21,16,26,15.00
2009,05,21,16,27,15.20
2009,05,21,16,28,15.20
2009,05,21,16,29,15.00
2009,05,21,16,30,14.90
2009,05,21,16,31,14.70
2009,05,21,16,32,14.50
2009,05,21,16,33,14.30
2009,05,21,16,34,14.30
2009,05,21,16,35,14.20
2009,05,21,16,36,14.20
2009,05,21,16,37,14.20
2009,05,21,16,38,14.20
2009,05,21,16,39,14.30
2009,05,21,16,40,14.50
2009,05,21,16,41,14.60
2009,05,21,16,42,14.50
2009,05,21,16,43,14.60
2009,05,21,16,44,14.80
2009,05,21,16,45,15.00
2009,05,21,16,46,15.10
2009,05,21,16,47,15.00
2009,05,21,16,48,14.90
2009,05,21,16,49,14.80
2009,05,21,16,50,14.80
2009,05,21,16,51,14.80
2009,05,21,16,52,14.80
2009,05,21,16,53,14.80
2009,05,21,16,54,14.70
2009,05,21,16,55,14.60
2009,05,21,16,56,14.50
2009,05,21,16,57,14.60
2009,05,21,16,58,14.50
2009,05,21,16,59,14.50
2009,05,21,17,00,14.60
2009,05,21,17,01,14.70
2009,05,21,17,02,14.70
2009,05,21,17,03,14.80
2009,05,21,17,04,15.00
2009,05,21,17,05,15.00
2009,05,21,17,06,14.90
2009,05,21,17,07,15.00
2009,05,21,17,08,15.10
2009,05,21,17,09,15.00
2009,05,21,17,10,15.00
2009,05,21,17,11,15.10
2009,05,21,17,12,15.10
2009,05,21,17,13,15.10
2009,05,21,17,14,15.20
2009,05,21,17,15,15.20
2009,05,21,17,16,15.20
2009,05,21,17,17,15.30
2009,05,21,17,18,15.30
2009,05,21,17,19,15.30
2009,05,21,17,20,15.30
2009,05,21,17,21,15.30
2009,05,21,17,22,15.30
2009,05,21,17,23,15.30
2009,05,21,17,24,15.30
2009,05,21,17,25,15.30
2009,05,21,17,26,15.40
2009,05,21,17,27,15.50
2009,05,21,17,28,15.50
2009,05,21,17,29,15.50
2009,05,21,17,30,15.50
2009,05,21,17,31,15.50
2009,05,21,17,32,15.60
2009,05,21,17,33,15.60
2009,05,21,17,34,15.60
2009,05,21,17,35,15.50
2009,05,21,17,36,15.40
2009,05,21,17,37,15.40
2009,05,21,17,38,15.20
2009,05,21,17,39,15.10